Date,Country,NumberAdmitted,SevenDayAverage,SevenDayAverageQF
20200311,S92000003,1,,z
20200312,S92000003,0,,z
20200313,S92000003,0,,z
20200314,S92000003,1,,z
20200315,S92000003,1,,z
20200316,S92000003,3,,z
20200317,S92000003,1,1,""
20200318,S92000003,3,1.28571428571429,""
20200319,S92000003,4,1.85714285714286,""
20200320,S92000003,8,3,""
20200321,S92000003,6,3.71428571428571,""
20200322,S92000003,8,4.71428571428571,""
20200323,S92000003,12,6,""
20200324,S92000003,10,7.28571428571429,""
20200325,S92000003,13,8.71428571428571,""
20200326,S92000003,15,10.2857142857143,""
20200327,S92000003,16,11.4285714285714,""
20200328,S92000003,17,13,""
20200329,S92000003,28,15.8571428571429,""
20200330,S92000003,22,17.2857142857143,""
20200331,S92000003,18,18.4285714285714,""
20200401,S92000003,24,20,""
20200402,S92000003,18,20.4285714285714,""
20200403,S92000003,27,22,""
20200404,S92000003,21,22.5714285714286,""
20200405,S92000003,25,22.1428571428571,""
20200406,S92000003,15,21.1428571428571,""
20200407,S92000003,16,20.8571428571429,""
20200408,S92000003,13,19.2857142857143,""
20200409,S92000003,12,18.4285714285714,""
20200410,S92000003,8,15.7142857142857,""
20200411,S92000003,9,14,""
20200412,S92000003,8,11.5714285714286,""
20200413,S92000003,8,10.5714285714286,""
20200414,S92000003,6,9.14285714285714,""
20200415,S92000003,6,8.14285714285714,""
20200416,S92000003,9,7.71428571428571,""
20200417,S92000003,5,7.28571428571429,""
20200418,S92000003,7,7,""
20200419,S92000003,8,7,""
20200420,S92000003,5,6.57142857142857,""
20200421,S92000003,5,6.42857142857143,""
20200422,S92000003,5,6.28571428571429,""
20200423,S92000003,7,6,""
20200424,S92000003,7,6.28571428571429,""
20200425,S92000003,1,5.42857142857143,""
20200426,S92000003,1,4.42857142857143,""
20200427,S92000003,1,3.85714285714286,""
20200428,S92000003,1,3.28571428571429,""
20200429,S92000003,7,3.57142857142857,""
20200430,S92000003,4,3.14285714285714,""
20200501,S92000003,6,3,""
20200502,S92000003,3,3.28571428571429,""
20200503,S92000003,2,3.42857142857143,""
20200504,S92000003,3,3.71428571428571,""
20200505,S92000003,2,3.85714285714286,""
20200506,S92000003,2,3.14285714285714,""
20200507,S92000003,0,2.57142857142857,""
20200508,S92000003,4,2.28571428571429,""
20200509,S92000003,1,2,""
20200510,S92000003,1,1.85714285714286,""
20200511,S92000003,2,1.71428571428571,""
20200512,S92000003,0,1.42857142857143,""
20200513,S92000003,0,1.14285714285714,""
20200514,S92000003,1,1.28571428571429,""
20200515,S92000003,2,1,""
20200516,S92000003,0,0.857142857142857,""
20200517,S92000003,1,0.857142857142857,""
20200518,S92000003,1,0.714285714285714,""
20200519,S92000003,2,1,""
20200520,S92000003,0,1,""
20200521,S92000003,0,0.857142857142857,""
20200522,S92000003,1,0.714285714285714,""
20200523,S92000003,0,0.714285714285714,""
20200524,S92000003,1,0.714285714285714,""
20200525,S92000003,1,0.714285714285714,""
20200526,S92000003,0,0.428571428571428,""
20200527,S92000003,0,0.428571428571428,""
20200528,S92000003,0,0.428571428571428,""
20200529,S92000003,0,0.285714285714286,""
20200530,S92000003,0,0.285714285714286,""
20200531,S92000003,0,0.142857142857143,""
20200601,S92000003,1,0.142857142857143,""
20200602,S92000003,1,0.285714285714286,""
20200603,S92000003,1,0.428571428571428,""
20200604,S92000003,0,0.428571428571428,""
20200605,S92000003,0,0.428571428571428,""
20200606,S92000003,0,0.428571428571428,""
20200607,S92000003,1,0.571428571428571,""
20200608,S92000003,0,0.428571428571428,""
20200609,S92000003,0,0.285714285714286,""
20200610,S92000003,1,0.285714285714286,""
20200611,S92000003,0,0.285714285714286,""
20200612,S92000003,0,0.285714285714286,""
20200613,S92000003,0,0.285714285714286,""
20200614,S92000003,0,0.142857142857143,""
20200615,S92000003,0,0.142857142857143,""
20200616,S92000003,1,0.285714285714286,""
20200617,S92000003,1,0.285714285714286,""
20200618,S92000003,0,0.285714285714286,""
20200619,S92000003,0,0.285714285714286,""
20200620,S92000003,0,0.285714285714286,""
20200621,S92000003,0,0.285714285714286,""
20200622,S92000003,0,0.285714285714286,""
20200623,S92000003,0,0.142857142857143,""
20200624,S92000003,0,0,""
20200625,S92000003,0,0,""
20200626,S92000003,0,0,""
20200627,S92000003,0,0,""
20200628,S92000003,0,0,""
20200629,S92000003,0,0,""
20200630,S92000003,0,0,""
20200701,S92000003,0,0,""
20200702,S92000003,0,0,""
20200703,S92000003,0,0,""
20200704,S92000003,0,0,""
20200705,S92000003,0,0,""
20200706,S92000003,0,0,""
20200707,S92000003,0,0,""
20200708,S92000003,1,0.142857142857143,""
20200709,S92000003,1,0.285714285714286,""
20200710,S92000003,0,0.285714285714286,""
20200711,S92000003,0,0.285714285714286,""
20200712,S92000003,0,0.285714285714286,""
20200713,S92000003,0,0.285714285714286,""
20200714,S92000003,0,0.285714285714286,""
20200715,S92000003,0,0.142857142857143,""
20200716,S92000003,0,0,""
20200717,S92000003,0,0,""
20200718,S92000003,0,0,""
20200719,S92000003,0,0,""
20200720,S92000003,0,0,""
20200721,S92000003,0,0,""
20200722,S92000003,0,0,""
20200723,S92000003,0,0,""
20200724,S92000003,0,0,""
20200725,S92000003,1,0.142857142857143,""
20200726,S92000003,0,0.142857142857143,""
20200727,S92000003,0,0.142857142857143,""
20200728,S92000003,0,0.142857142857143,""
20200729,S92000003,0,0.142857142857143,""
20200730,S92000003,0,0.142857142857143,""
20200731,S92000003,0,0.142857142857143,""
20200801,S92000003,0,0,""
20200802,S92000003,0,0,""
20200803,S92000003,0,0,""
20200804,S92000003,0,0,""
20200805,S92000003,0,0,""
20200806,S92000003,0,0,""
20200807,S92000003,0,0,""
20200808,S92000003,0,0,""
20200809,S92000003,0,0,""
20200810,S92000003,0,0,""
20200811,S92000003,0,0,""
20200812,S92000003,0,0,""
20200813,S92000003,0,0,""
20200814,S92000003,0,0,""
20200815,S92000003,1,0.142857142857143,""
20200816,S92000003,0,0.142857142857143,""
20200817,S92000003,0,0.142857142857143,""
20200818,S92000003,0,0.142857142857143,""
20200819,S92000003,0,0.142857142857143,""
20200820,S92000003,0,0.142857142857143,""
20200821,S92000003,0,0.142857142857143,""
20200822,S92000003,0,0,""
20200823,S92000003,0,0,""
20200824,S92000003,1,0.142857142857143,""
20200825,S92000003,0,0.142857142857143,""
20200826,S92000003,0,0.142857142857143,""
20200827,S92000003,1,0.285714285714286,""
20200828,S92000003,1,0.428571428571428,""
20200829,S92000003,0,0.428571428571428,""
20200830,S92000003,0,0.428571428571428,""
20200831,S92000003,1,0.428571428571428,""
20200901,S92000003,0,0.428571428571428,""
20200902,S92000003,0,0.428571428571428,""
20200903,S92000003,0,0.285714285714286,""
20200904,S92000003,0,0.142857142857143,""
20200905,S92000003,0,0.142857142857143,""
20200906,S92000003,1,0.285714285714286,""
20200907,S92000003,0,0.142857142857143,""
20200908,S92000003,0,0.142857142857143,""
20200909,S92000003,1,0.285714285714286,""
20200910,S92000003,1,0.428571428571428,""
20200911,S92000003,1,0.571428571428571,""
20200912,S92000003,1,0.714285714285714,""
20200913,S92000003,0,0.571428571428571,""
20200914,S92000003,0,0.571428571428571,""
20200915,S92000003,0,0.571428571428571,""
20200916,S92000003,1,0.571428571428571,""
20200917,S92000003,1,0.571428571428571,""
20200918,S92000003,3,0.857142857142857,""
20200919,S92000003,0,0.714285714285714,""
20200920,S92000003,2,1,""
20200921,S92000003,0,1,""
20200922,S92000003,1,1.14285714285714,""
20200923,S92000003,3,1.42857142857143,""
20200924,S92000003,1,1.42857142857143,""
20200925,S92000003,1,1.14285714285714,""
20200926,S92000003,3,1.57142857142857,""
20200927,S92000003,2,1.57142857142857,""
20200928,S92000003,3,2,""
20200929,S92000003,2,2.14285714285714,""
20200930,S92000003,4,2.28571428571429,""
20201001,S92000003,2,2.42857142857143,""
20201002,S92000003,7,3.28571428571429,""
20201003,S92000003,3,3.28571428571429,""
20201004,S92000003,1,3.14285714285714,""
20201005,S92000003,3,3.14285714285714,""
20201006,S92000003,0,2.85714285714286,""
20201007,S92000003,5,3,""
20201008,S92000003,3,3.14285714285714,""
20201009,S92000003,5,2.85714285714286,""
20201010,S92000003,5,3.14285714285714,""
20201011,S92000003,4,3.57142857142857,""
20201012,S92000003,9,4.42857142857143,""
20201013,S92000003,9,5.71428571428571,""
20201014,S92000003,5,5.71428571428571,""
20201015,S92000003,11,6.85714285714286,""
20201016,S92000003,8,7.28571428571429,""
20201017,S92000003,3,7,""
20201018,S92000003,7,7.42857142857143,""
20201019,S92000003,12,7.85714285714286,""
20201020,S92000003,3,7,""
20201021,S92000003,8,7.42857142857143,""
20201022,S92000003,9,7.14285714285714,""
20201023,S92000003,7,7,""
20201024,S92000003,9,7.85714285714286,""
20201025,S92000003,10,8.28571428571429,""
20201026,S92000003,9,7.85714285714286,""
20201027,S92000003,8,8.57142857142857,""
20201028,S92000003,2,7.71428571428571,""
20201029,S92000003,7,7.42857142857143,""
20201030,S92000003,10,7.85714285714286,""
20201031,S92000003,5,7.28571428571429,""
20201101,S92000003,11,7.42857142857143,""
20201102,S92000003,8,7.28571428571429,""
20201103,S92000003,13,8,""
20201104,S92000003,5,8.42857142857143,""
20201105,S92000003,6,8.28571428571429,""
20201106,S92000003,7,7.85714285714286,""
20201107,S92000003,5,7.85714285714286,""
20201108,S92000003,7,7.28571428571429,""
20201109,S92000003,4,6.71428571428571,""
20201110,S92000003,5,5.57142857142857,""
20201111,S92000003,9,6.14285714285714,""
20201112,S92000003,8,6.42857142857143,""
20201113,S92000003,6,6.28571428571429,""
20201114,S92000003,11,7.14285714285714,""
20201115,S92000003,8,7.28571428571429,""
20201116,S92000003,6,7.57142857142857,""
20201117,S92000003,4,7.42857142857143,""
20201118,S92000003,8,7.28571428571429,""
20201119,S92000003,5,6.85714285714286,""
20201120,S92000003,10,7.42857142857143,""
20201121,S92000003,4,6.42857142857143,""
20201122,S92000003,2,5.57142857142857,""
20201123,S92000003,8,5.85714285714286,""
20201124,S92000003,12,7,""
20201125,S92000003,6,6.71428571428571,""
20201126,S92000003,8,7.14285714285714,""
20201127,S92000003,7,6.71428571428571,""
20201128,S92000003,3,6.57142857142857,""
20201129,S92000003,4,6.85714285714286,""
20201130,S92000003,6,6.57142857142857,""
20201201,S92000003,6,5.71428571428571,""
20201202,S92000003,5,5.57142857142857,""
20201203,S92000003,4,5,""
20201204,S92000003,5,4.71428571428571,""
20201205,S92000003,3,4.71428571428571,""
20201206,S92000003,1,4.28571428571429,""
20201207,S92000003,5,4.14285714285714,""
20201208,S92000003,7,4.28571428571429,""
20201209,S92000003,3,4,""
20201210,S92000003,7,4.42857142857143,""
20201211,S92000003,5,4.42857142857143,""
20201212,S92000003,3,4.42857142857143,""
20201213,S92000003,4,4.85714285714286,""
20201214,S92000003,6,5,""
20201215,S92000003,8,5.14285714285714,""
20201216,S92000003,6,5.57142857142857,""
20201217,S92000003,5,5.28571428571429,""
20201218,S92000003,8,5.71428571428571,""
20201219,S92000003,8,6.42857142857143,""
20201220,S92000003,4,6.42857142857143,""
20201221,S92000003,10,7,""
20201222,S92000003,3,6.28571428571429,""
20201223,S92000003,6,6.28571428571429,""
20201224,S92000003,1,5.71428571428571,""
20201225,S92000003,5,5.28571428571429,""
20201226,S92000003,7,5.14285714285714,""
20201227,S92000003,8,5.71428571428571,""
20201228,S92000003,11,5.85714285714286,""
20201229,S92000003,12,7.14285714285714,""
20201230,S92000003,7,7.28571428571429,""
20201231,S92000003,9,8.42857142857143,""
20210101,S92000003,14,9.71428571428571,""
20210102,S92000003,9,10,""
20210103,S92000003,10,10.2857142857143,""
20210104,S92000003,12,10.4285714285714,""
20210105,S92000003,17,11.1428571428571,""
20210106,S92000003,13,12,""
20210107,S92000003,18,13.2857142857143,""
20210108,S92000003,11,12.8571428571429,""
20210109,S92000003,21,14.5714285714286,""
20210110,S92000003,15,15.2857142857143,""
20210111,S92000003,9,14.8571428571429,""
20210112,S92000003,16,14.7142857142857,""
20210113,S92000003,16,15.1428571428571,""
20210114,S92000003,19,15.2857142857143,""
20210115,S92000003,13,15.5714285714286,""
20210116,S92000003,17,15,""
20210117,S92000003,15,15,""
20210118,S92000003,19,16.4285714285714,""
20210119,S92000003,15,16.2857142857143,""
20210120,S92000003,17,16.4285714285714,""
20210121,S92000003,17,16.1428571428571,""
20210122,S92000003,8,15.4285714285714,""
20210123,S92000003,7,14,""
20210124,S92000003,9,13.1428571428571,""
20210125,S92000003,14,12.4285714285714,""
20210126,S92000003,6,11.1428571428571,""
20210127,S92000003,13,10.5714285714286,""
20210128,S92000003,8,9.28571428571429,""
20210129,S92000003,12,9.85714285714286,""
20210130,S92000003,9,10.1428571428571,""
20210131,S92000003,12,10.5714285714286,""
20210201,S92000003,9,9.85714285714286,""
20210202,S92000003,11,10.5714285714286,""
20210203,S92000003,5,9.42857142857143,""
20210204,S92000003,7,9.28571428571429,""
20210205,S92000003,14,9.57142857142857,""
20210206,S92000003,7,9.28571428571429,""
20210207,S92000003,10,9,""
20210208,S92000003,15,9.85714285714286,""
20210209,S92000003,9,9.57142857142857,""
20210210,S92000003,7,9.85714285714286,""
20210211,S92000003,12,10.5714285714286,""
20210212,S92000003,12,10.2857142857143,""
20210213,S92000003,7,10.2857142857143,""
20210214,S92000003,9,10.1428571428571,""
20210215,S92000003,13,9.85714285714286,""
20210216,S92000003,8,9.71428571428571,""
20210217,S92000003,8,9.85714285714286,""
20210218,S92000003,9,9.42857142857143,""
20210219,S92000003,12,9.42857142857143,""
20210220,S92000003,3,8.85714285714286,""
20210221,S92000003,10,9,""
20210222,S92000003,9,8.42857142857143,""
20210223,S92000003,6,8.14285714285714,""
20210224,S92000003,5,7.71428571428571,""
20210225,S92000003,3,6.85714285714286,""
20210226,S92000003,6,6,""
20210227,S92000003,4,6.14285714285714,""
20210228,S92000003,3,5.14285714285714,""
20210301,S92000003,7,4.85714285714286,""
20210302,S92000003,4,4.57142857142857,""
20210303,S92000003,9,5.14285714285714,""
20210304,S92000003,0,4.71428571428571,""
20210305,S92000003,3,4.28571428571429,""
20210306,S92000003,5,4.42857142857143,""
20210307,S92000003,4,4.57142857142857,""
20210308,S92000003,2,3.85714285714286,""
20210309,S92000003,4,3.85714285714286,""
20210310,S92000003,2,2.85714285714286,""
20210311,S92000003,3,3.28571428571429,""
20210312,S92000003,2,3.14285714285714,""
20210313,S92000003,4,3,""
20210314,S92000003,4,3,""
20210315,S92000003,4,3.28571428571429,""
20210316,S92000003,2,3,""
20210317,S92000003,5,3.42857142857143,""
20210318,S92000003,0,3,""
20210319,S92000003,2,3,""
20210320,S92000003,3,2.85714285714286,""
20210321,S92000003,2,2.57142857142857,""
20210322,S92000003,1,2.14285714285714,""
20210323,S92000003,4,2.42857142857143,""
20210324,S92000003,3,2.14285714285714,""
20210325,S92000003,4,2.71428571428571,""
20210326,S92000003,3,2.85714285714286,""
20210327,S92000003,2,2.71428571428571,""
20210328,S92000003,4,3,""
20210329,S92000003,2,3.14285714285714,""
20210330,S92000003,2,2.85714285714286,""
20210331,S92000003,2,2.71428571428571,""
20210401,S92000003,3,2.57142857142857,""
20210402,S92000003,1,2.28571428571429,""
20210403,S92000003,1,2.14285714285714,""
20210404,S92000003,0,1.57142857142857,""
20210405,S92000003,2,1.57142857142857,""
20210406,S92000003,2,1.57142857142857,""
20210407,S92000003,2,1.57142857142857,""
20210408,S92000003,0,1.14285714285714,""
20210409,S92000003,0,1,""
20210410,S92000003,1,1,""
20210411,S92000003,1,1.14285714285714,""
20210412,S92000003,1,1,""
20210413,S92000003,2,1,""
20210414,S92000003,2,1,""
20210415,S92000003,0,1,""
20210416,S92000003,1,1.14285714285714,""
20210417,S92000003,2,1.28571428571429,""
20210418,S92000003,0,1.14285714285714,""
20210419,S92000003,2,1.28571428571429,""
20210420,S92000003,0,1,""
20210421,S92000003,1,0.857142857142857,""
20210422,S92000003,1,1,""
20210423,S92000003,1,1,""
20210424,S92000003,2,1,""
20210425,S92000003,0,1,""
20210426,S92000003,1,0.857142857142857,""
20210427,S92000003,2,1.14285714285714,""
20210428,S92000003,0,1,""
20210429,S92000003,0,0.857142857142857,""
20210430,S92000003,3,1.14285714285714,""
20210501,S92000003,1,1,""
20210502,S92000003,1,1.14285714285714,""
20210503,S92000003,2,1.28571428571429,""
20210504,S92000003,2,1.28571428571429,""
20210505,S92000003,0,1.28571428571429,""
20210506,S92000003,2,1.57142857142857,""
20210507,S92000003,1,1.28571428571429,""
20210508,S92000003,1,1.28571428571429,""
20210509,S92000003,0,1.14285714285714,""
20210510,S92000003,3,1.28571428571429,""
20210511,S92000003,1,1.14285714285714,""
20210512,S92000003,0,1.14285714285714,""
20210513,S92000003,0,0.857142857142857,""
20210514,S92000003,0,0.714285714285714,""
20210515,S92000003,0,0.571428571428571,""
20210516,S92000003,1,0.714285714285714,""
20210517,S92000003,1,0.428571428571428,""
20210518,S92000003,0,0.285714285714286,""
20210519,S92000003,1,0.428571428571428,""
20210520,S92000003,1,0.571428571428571,""
20210521,S92000003,3,1,""
20210522,S92000003,1,1.14285714285714,""
20210523,S92000003,0,1,""
20210524,S92000003,1,1,""
20210525,S92000003,1,1.14285714285714,""
20210526,S92000003,1,1.14285714285714,""
20210527,S92000003,1,1.14285714285714,""
20210528,S92000003,1,0.857142857142857,""
20210529,S92000003,1,0.857142857142857,""
20210530,S92000003,1,1,""
20210531,S92000003,0,0.857142857142857,""
20210601,S92000003,4,1.28571428571429,""
20210602,S92000003,2,1.42857142857143,""
20210603,S92000003,0,1.28571428571429,""
20210604,S92000003,1,1.28571428571429,""
20210605,S92000003,2,1.42857142857143,""
20210606,S92000003,2,1.57142857142857,""
20210607,S92000003,4,2.14285714285714,""
20210608,S92000003,1,1.71428571428571,""
20210609,S92000003,0,1.42857142857143,""
20210610,S92000003,2,1.71428571428571,""
20210611,S92000003,3,2,""
20210612,S92000003,1,1.85714285714286,""
20210613,S92000003,2,1.85714285714286,""
20210614,S92000003,1,1.42857142857143,""
20210615,S92000003,2,1.57142857142857,""
20210616,S92000003,0,1.57142857142857,""
20210617,S92000003,1,1.42857142857143,""
20210618,S92000003,4,1.57142857142857,""
20210619,S92000003,1,1.57142857142857,""
20210620,S92000003,1,1.42857142857143,""
20210621,S92000003,5,2,""
20210622,S92000003,0,1.71428571428571,""
20210623,S92000003,1,1.85714285714286,""
20210624,S92000003,1,1.85714285714286,""
20210625,S92000003,2,1.57142857142857,""
20210626,S92000003,0,1.42857142857143,""
20210627,S92000003,3,1.71428571428571,""
20210628,S92000003,2,1.28571428571429,""
20210629,S92000003,0,1.28571428571429,""
20210630,S92000003,3,1.57142857142857,""
20210701,S92000003,6,2.28571428571429,""
20210702,S92000003,3,2.42857142857143,""
20210703,S92000003,5,3.14285714285714,""
20210704,S92000003,4,3.28571428571429,""
20210705,S92000003,9,4.28571428571429,""
20210706,S92000003,2,4.57142857142857,""
20210707,S92000003,8,5.28571428571429,""
20210708,S92000003,7,5.42857142857143,""
20210709,S92000003,5,5.71428571428571,""
20210710,S92000003,5,5.71428571428571,""
20210711,S92000003,5,5.85714285714286,""
20210712,S92000003,7,5.57142857142857,""
20210713,S92000003,7,6.28571428571429,""
20210714,S92000003,4,5.71428571428571,""
20210715,S92000003,7,5.71428571428571,""
20210716,S92000003,8,6.14285714285714,""
20210717,S92000003,6,6.28571428571429,""
20210718,S92000003,6,6.42857142857143,""
20210719,S92000003,5,6.14285714285714,""
20210720,S92000003,9,6.42857142857143,""
20210721,S92000003,6,6.71428571428571,""
20210722,S92000003,10,7.14285714285714,""
20210723,S92000003,6,6.85714285714286,""
20210724,S92000003,7,7,""
20210725,S92000003,6,7,""
20210726,S92000003,4,6.85714285714286,""
20210727,S92000003,5,6.28571428571429,""
20210728,S92000003,3,5.85714285714286,""
20210729,S92000003,3,4.85714285714286,""
20210730,S92000003,3,4.42857142857143,""
20210731,S92000003,5,4.14285714285714,""
20210801,S92000003,3,3.71428571428571,""
20210802,S92000003,5,3.85714285714286,""
20210803,S92000003,3,3.57142857142857,""
20210804,S92000003,4,3.71428571428571,""
20210805,S92000003,3,3.71428571428571,""
20210806,S92000003,1,3.42857142857143,""
20210807,S92000003,4,3.28571428571429,""
20210808,S92000003,3,3.28571428571429,""
20210809,S92000003,3,3,""
20210810,S92000003,5,3.28571428571429,""
20210811,S92000003,2,3,""
20210812,S92000003,3,3,""
20210813,S92000003,3,3.28571428571429,""
20210814,S92000003,2,3,""
20210815,S92000003,5,3.28571428571429,""
20210816,S92000003,5,3.57142857142857,""
20210817,S92000003,1,3,""
20210818,S92000003,1,2.85714285714286,""
20210819,S92000003,2,2.71428571428571,""
20210820,S92000003,1,2.42857142857143,""
20210821,S92000003,5,2.85714285714286,""
20210822,S92000003,6,3,""
20210823,S92000003,7,3.28571428571429,""
20210824,S92000003,5,3.85714285714286,""
20210825,S92000003,7,4.71428571428571,""
20210826,S92000003,9,5.71428571428571,""
20210827,S92000003,8,6.71428571428571,""
20210828,S92000003,4,6.57142857142857,""
20210829,S92000003,7,6.71428571428571,""
20210830,S92000003,6,6.57142857142857,""
20210831,S92000003,8,7,""
20210901,S92000003,8,7.14285714285714,""
20210902,S92000003,8,7,""
20210903,S92000003,7,6.85714285714286,""
20210904,S92000003,7,7.28571428571429,""
20210905,S92000003,16,8.57142857142857,""
20210906,S92000003,13,9.57142857142857,""
20210907,S92000003,12,10.1428571428571,""
20210908,S92000003,10,10.4285714285714,""
20210909,S92000003,9,10.5714285714286,""
20210910,S92000003,10,11,""
20210911,S92000003,13,11.8571428571429,""
20210912,S92000003,12,11.2857142857143,""
20210913,S92000003,9,10.7142857142857,""
20210914,S92000003,7,10,""
20210915,S92000003,11,10.1428571428571,""
20210916,S92000003,9,10.1428571428571,""
20210917,S92000003,15,10.8571428571429,""
20210918,S92000003,13,10.8571428571429,""
20210919,S92000003,6,10,""
20210920,S92000003,7,9.71428571428571,""
20210921,S92000003,8,9.85714285714286,""
20210922,S92000003,10,9.71428571428571,""
20210923,S92000003,4,9,""
20210924,S92000003,9,8.14285714285714,""
20210925,S92000003,7,7.28571428571429,""
20210926,S92000003,2,6.71428571428571,""
20210927,S92000003,9,7,""
20210928,S92000003,5,6.57142857142857,""
20210929,S92000003,5,5.85714285714286,""
20210930,S92000003,6,6.14285714285714,""
20211001,S92000003,6,5.71428571428571,""
20211002,S92000003,8,5.85714285714286,""
20211003,S92000003,7,6.57142857142857,""
20211004,S92000003,7,6.28571428571429,""
20211005,S92000003,6,6.42857142857143,""
20211006,S92000003,7,6.71428571428571,""
20211007,S92000003,4,6.42857142857143,""
20211008,S92000003,9,6.85714285714286,""
20211009,S92000003,9,7,""
20211010,S92000003,5,6.71428571428571,""
20211011,S92000003,3,6.14285714285714,""
20211012,S92000003,3,5.71428571428571,""
20211013,S92000003,3,5.14285714285714,""
20211014,S92000003,9,5.85714285714286,""
20211015,S92000003,8,5.71428571428571,""
20211016,S92000003,3,4.85714285714286,""
20211017,S92000003,4,4.71428571428571,""
20211018,S92000003,7,5.28571428571429,""
20211019,S92000003,10,6.28571428571429,""
20211020,S92000003,9,7.14285714285714,""
20211021,S92000003,8,7,""
20211022,S92000003,11,7.42857142857143,""
20211023,S92000003,5,7.71428571428571,""
20211024,S92000003,3,7.57142857142857,""
20211025,S92000003,9,7.85714285714286,""
20211026,S92000003,8,7.57142857142857,""
20211027,S92000003,9,7.57142857142857,""
20211028,S92000003,11,8,""
20211029,S92000003,9,7.71428571428571,""
20211030,S92000003,6,7.85714285714286,""
20211031,S92000003,4,8,""
20211101,S92000003,9,8,""
20211102,S92000003,6,7.71428571428571,""
20211103,S92000003,4,7,""
20211104,S92000003,6,6.28571428571429,""
20211105,S92000003,8,6.14285714285714,""
20211106,S92000003,5,6,""
20211107,S92000003,6,6.28571428571429,""
20211108,S92000003,12,6.71428571428571,""
20211109,S92000003,5,6.57142857142857,""
20211110,S92000003,6,6.85714285714286,""
20211111,S92000003,7,7,""
20211112,S92000003,7,6.85714285714286,""
20211113,S92000003,4,6.71428571428571,""
20211114,S92000003,6,6.71428571428571,""
20211115,S92000003,13,6.85714285714286,""
20211116,S92000003,3,6.57142857142857,""
20211117,S92000003,6,6.57142857142857,""
20211118,S92000003,11,7.14285714285714,""
20211119,S92000003,1,6.28571428571429,""
20211120,S92000003,6,6.57142857142857,""
20211121,S92000003,6,6.57142857142857,""
20211122,S92000003,8,5.85714285714286,""
20211123,S92000003,8,6.57142857142857,""
20211124,S92000003,5,6.42857142857143,""
20211125,S92000003,4,5.42857142857143,""
20211126,S92000003,4,5.85714285714286,""
20211127,S92000003,7,6,""